Weather History for KCRP - March, 2015

Change the Weather History Date:

Thursday, March 26, 2015

  Actual Average Record
Temperature  
Mean Temperature 67 °F 68 °F  
Max Temperature 75 °F 78 °F 94 °F (1939)
Min Temperature 59 °F 58 °F 34 °F (1969)
Degree Days  
Heating Degree Days 0 2  
Month to date heating degree days 115 75  
Since 1 July heating degree days 1052 875  
Cooling Degree Days 2 5  
Month to date cooling degree days 52 90  
Year to date cooling degree days 80 166  
Growing Degree Days 18 (Base 50)    
Moisture  
Dew Point 63 °F    
Average Humidity 73    
Maximum Humidity 93    
Minimum Humidity 53    
Precipitation  
Precipitation 0.04 in 0.07 in 1.67 in (1943)
Month to date precipitation 6.13 1.63  
Year to date precipitation 9.58 5.10  
Snow  
Snow 0.00 in - - ()
Month to date snowfall 0.0  
Since 1 July snowfall 0.0  
Snow Depth 0.00 in    
Sea Level Pressure  
Sea Level Pressure 29.95 in    
Wind  
Wind Speed 13 mph (North)    
Max Wind Speed 33 mph    
Max Gust Speed 41 mph    
Visibility 7 miles    
Events Fog , Rain , Thunderstorm    
T = Trace of Precipitation, MM = Missing Value Source: NWS Daily Summary

Daily Weather History Graph

Daily Weather History Graph

Search for Another Location

Airport or City:

Trip Planner

Search our weather history database for the weather conditions in past years. The results will help you decide how hot, cold, wet, or windy it might be!

Date:

Astronomy

Mar. 26, 2015 Rise Set
Actual Time 7:27 AM CDT 7:44 PM CDT
Civil Twilight 7:03 AM CDT 8:07 PM CDT
Nautical Twilight 6:36 AM CDT 8:35 PM CDT
Astronomical Twilight 6:09 AM CDT 9:02 PM CDT
Moon 12:29 PM CDT (3/26) 1:25 AM CDT (3/26)
Length of Visible Light 13h 03m
Length of Day
12h 17m
Waxing Crescent, 44% of the Moon is Illuminated
Mar 26
Waxing Crescent
Mar 27
First Quarter
Apr 4
Full
Apr 11
Last Quarter
Apr 18
New

Hourly Weather History & Observations

Time (CDT) Temp. Dew Point Humidity Pressure Visibility Wind Dir Wind Speed Gust Speed Precip Events Conditions
12:11 AM 71.1 °F 69.1 °F 93% 29.91 in 10.0 mi South 6.9 mph - 0.00 in Rain Light Rain
12:51 AM 71.1 °F 69.1 °F 93% 29.90 in 10.0 mi SSE 9.2 mph - 0.00 in   Overcast
1:51 AM 71.1 °F 69.1 °F 93% 29.89 in 10.0 mi SSE 9.2 mph - 0.01 in   Overcast
2:51 AM 71.1 °F 69.1 °F 93% 29.88 in 10.0 mi SSE 6.9 mph - N/A   Overcast
3:42 AM 71.1 °F 69.1 °F 93% 29.85 in 7.0 mi SE 8.1 mph - N/A   Overcast
3:51 AM 71.1 °F 69.1 °F 93% 29.84 in 6.0 mi SE 8.1 mph - N/A   Overcast
4:51 AM 71.1 °F 70.0 °F 96% 29.82 in 5.0 mi SSE 10.4 mph - N/A   Overcast
5:39 AM 71.1 °F 70.0 °F 96% 29.83 in 2.0 mi South 8.1 mph - N/A   Overcast
5:45 AM 71.6 °F 69.8 °F 94% 29.83 in 0.5 mi South 9.2 mph - N/A   Overcast
5:51 AM 71.1 °F 70.0 °F 96% 29.83 in 0.5 mi South 10.4 mph - N/A   Overcast
5:56 AM 71.1 °F 70.0 °F 96% 29.82 in 0.2 mi SSW 10.4 mph - N/A Fog Fog
6:40 AM 71.1 °F 70.0 °F 96% 29.84 in 0.5 mi South 8.1 mph - 0.00 in Fog Light Drizzle
6:51 AM 71.1 °F 70.0 °F 96% 29.85 in 0.5 mi South 6.9 mph - 0.00 in Fog Light Drizzle
7:15 AM 71.1 °F 70.0 °F 96% 29.87 in 1.0 mi Calm Calm - 0.00 in   Overcast
7:51 AM 71.1 °F 70.0 °F 96% 29.88 in 0.8 mi Calm Calm - 0.00 in   Overcast
8:17 AM 71.1 °F 70.0 °F 96% 29.90 in 1.5 mi North 4.6 mph - N/A   Overcast
8:39 AM 71.1 °F 70.0 °F 96% 29.92 in 2.0 mi NNW 6.9 mph - N/A   Overcast
8:51 AM 71.1 °F 70.0 °F 96% 29.92 in 1.8 mi NNW 9.2 mph - 0.00 in Rain Light Rain
9:25 AM 72.0 °F 71.1 °F 97% 29.93 in 2.5 mi NNW 9.2 mph - 0.01 in Rain Light Rain
9:38 AM 73.0 °F 70.0 °F 90% 29.94 in 5.0 mi North 12.7 mph - 0.01 in Rain Light Rain
9:51 AM 73.0 °F 70.0 °F 90% 29.94 in 7.0 mi North 10.4 mph - 0.01 in   Mostly Cloudy
10:01 AM 73.9 °F 71.1 °F 91% 29.94 in 7.0 mi North 13.8 mph - 0.00 in Rain Light Rain
10:35 AM 66.0 °F 63.0 °F 90% 29.97 in 10.0 mi North 26.5 mph - 0.00 in   Overcast
10:51 AM 64.0 °F 61.0 °F 90% 29.99 in 10.0 mi North 19.6 mph - 0.00 in   Overcast
11:19 AM 64.0 °F 59.0 °F 84% 30.01 in 10.0 mi North 20.7 mph - N/A   Overcast
11:51 AM 64.9 °F 57.9 °F 78% 30.01 in 10.0 mi North 25.3 mph 28.8 mph N/A   Overcast
12:01 PM 64.9 °F 57.9 °F 78% 30.01 in 10.0 mi North 19.6 mph - N/A   Overcast
12:51 PM 64.0 °F 55.0 °F 73% 30.04 in 10.0 mi North 23.0 mph 26.5 mph N/A   Overcast
1:41 PM 66.9 °F 55.0 °F 66% 30.01 in 10.0 mi North 20.7 mph 27.6 mph N/A   Mostly Cloudy
1:51 PM 68.0 °F 55.0 °F 63% 30.00 in 10.0 mi North 19.6 mph 28.8 mph N/A   Mostly Cloudy
2:51 PM 71.1 °F 55.0 °F 57% 29.98 in 10.0 mi North 21.9 mph - N/A   Mostly Cloudy
3:51 PM 71.1 °F 54.0 °F 55% 30.00 in 10.0 mi North 26.5 mph 38.0 mph N/A   Overcast
4:51 PM 70.0 °F 52.0 °F 53% 29.99 in 10.0 mi NNW 29.9 mph 36.8 mph N/A   Mostly Cloudy
5:24 PM 64.0 °F 52.0 °F 65% 30.00 in 10.0 mi North 19.6 mph 27.6 mph N/A Thunderstorm Mostly Cloudy
5:43 PM 63.0 °F 53.1 °F 70% 30.00 in 10.0 mi North 18.4 mph - 0.01 in Rain , Thunderstorm Thunderstorms and Rain
5:51 PM 62.1 °F 53.1 °F 72% 30.03 in 10.0 mi NNW 19.6 mph - 0.01 in Rain , Thunderstorm Light Thunderstorms and Rain
6:12 PM 62.1 °F 55.0 °F 78% 30.03 in 10.0 mi NW 15.0 mph - 0.01 in Rain Light Rain
6:51 PM 63.0 °F 55.9 °F 78% 30.01 in 10.0 mi NNW 11.5 mph - 0.01 in   Mostly Cloudy
7:51 PM 63.0 °F 55.9 °F 78% 30.06 in 10.0 mi North 4.6 mph - 0.00 in   Overcast
8:51 PM 63.0 °F 54.0 °F 72% 30.10 in 10.0 mi WNW 5.8 mph - 0.00 in   Overcast
9:51 PM 62.6 °F 55.4 °F 77% 30.13 in 10.0 mi NW 3.5 mph - N/A   Overcast
10:51 PM 63.0 °F 51.1 °F 65% 30.11 in 10.0 mi North 13.8 mph - N/A   Mostly Cloudy
11:51 PM 61.0 °F 51.1 °F 70% 30.14 in 10.0 mi NNW 8.1 mph - N/A   Partly Cloudy